TimePST,TemperatureF,Dew PointF,Humidity,Sea Level PressureIn,VisibilityMPH,Wind Direction,Wind SpeedMPH,Gust SpeedMPH,PrecipitationIn,Events,Conditions,WindDirDegrees,DateUTC
12:15 AM,39.2,35.6,87,29.58,10.0,Calm,Calm,-,N/A,,Overcast,0,2012-12-20 08:15:00
12:35 AM,37.4,35.6,93,29.56,10.0,Calm,Calm,-,N/A,,Overcast,0,2012-12-20 08:35:00
12:55 AM,37.4,35.6,93,29.56,10.0,Calm,Calm,-,N/A,,Overcast,0,2012-12-20 08:55:00
1:15 AM,37.4,35.6,93,29.54,10.0,Calm,Calm,-,N/A,,Overcast,0,2012-12-20 09:15:00
1:35 AM,37.4,35.6,93,29.53,9.0,Calm,Calm,-,0.01,,Overcast,0,2012-12-20 09:35:00
1:55 AM,39.2,37.4,93,29.53,9.0,SE,8.1,-,0.01,,Overcast,140,2012-12-20 09:55:00
2:15 AM,42.8,37.4,81,29.53,10.0,SE,15.0,20.7,N/A,,Overcast,130,2012-12-20 10:15:00
2:35 AM,42.8,37.4,81,29.54,10.0,SSE,9.2,19.6,N/A,,Overcast,160,2012-12-20 10:35:00
2:55 AM,42.8,37.4,81,29.52,10.0,SE,11.5,-,N/A,,Overcast,130,2012-12-20 10:55:00
3:15 AM,42.8,37.4,81,29.52,10.0,SE,17.3,21.9,N/A,,Overcast,130,2012-12-20 11:15:00
3:35 AM,42.8,39.2,87,29.53,10.0,SE,19.6,24.2,N/A,,Overcast,130,2012-12-20 11:35:00
3:55 AM,42.8,39.2,87,29.54,10.0,SE,16.1,24.2,N/A,,Overcast,130,2012-12-20 11:55:00
4:15 AM,42.8,37.4,81,29.53,10.0,SSE,13.8,23.0,N/A,,Overcast,150,2012-12-20 12:15:00
4:35 AM,44.6,39.2,81,29.52,10.0,SE,17.3,21.9,N/A,,Overcast,140,2012-12-20 12:35:00
4:55 AM,44.6,37.4,76,29.53,10.0,SE,17.3,24.2,N/A,,Overcast,130,2012-12-20 12:55:00
5:15 AM,44.6,37.4,76,29.53,10.0,SE,18.4,26.5,N/A,,Overcast,130,2012-12-20 13:15:00
5:35 AM,44.6,37.4,76,29.53,10.0,SE,19.6,-,N/A,,Overcast,130,2012-12-20 13:35:00
5:55 AM,42.8,39.2,87,29.54,10.0,SE,15.0,-,N/A,,Overcast,130,2012-12-20 13:55:00
6:15 AM,42.8,39.2,87,29.54,10.0,SE,13.8,-,N/A,,Overcast,130,2012-12-20 14:15:00
6:35 AM,42.8,39.2,87,29.55,10.0,SE,10.4,-,N/A,,Overcast,140,2012-12-20 14:35:00
6:55 AM,42.8,39.2,87,29.54,10.0,SSE,15.0,21.9,N/A,,Overcast,150,2012-12-20 14:55:00
7:15 AM,42.8,37.4,81,29.56,10.0,SSE,13.8,24.2,N/A,,Overcast,150,2012-12-20 15:15:00
7:35 AM,42.8,37.4,81,29.56,10.0,SE,17.3,-,N/A,,Overcast,140,2012-12-20 15:35:00
7:55 AM,42.8,37.4,81,29.57,10.0,SE,15.0,18.4,N/A,,Overcast,140,2012-12-20 15:55:00
8:15 AM,42.8,37.4,81,29.58,10.0,SE,15.0,-,N/A,,Overcast,140,2012-12-20 16:15:00
8:35 AM,41.0,37.4,87,29.57,10.0,SE,12.7,-,N/A,,Overcast,140,2012-12-20 16:35:00
8:55 AM,41.0,37.4,87,29.57,10.0,SSE,11.5,19.6,N/A,,Overcast,150,2012-12-20 16:55:00
9:15 AM,39.2,37.4,93,29.59,10.0,SSE,10.4,-,N/A,,Overcast,150,2012-12-20 17:15:00
9:35 AM,39.2,35.6,87,29.58,10.0,SSE,11.5,-,N/A,,Overcast,150,2012-12-20 17:35:00
9:55 AM,39.2,35.6,87,29.60,10.0,SSE,13.8,-,0.01,,Overcast,150,2012-12-20 17:55:00
10:15 AM,39.2,37.4,93,29.60,10.0,SE,10.4,-,0.01,,Overcast,140,2012-12-20 18:15:00
10:35 AM,39.2,37.4,93,29.60,10.0,SE,11.5,18.4,0.01,,Overcast,140,2012-12-20 18:35:00
10:55 AM,39.2,37.4,93,29.61,10.0,SSE,15.0,20.7,0.02,,Overcast,150,2012-12-20 18:55:00
11:15 AM,39.2,35.6,87,29.62,10.0,SSE,16.1,19.6,N/A,,Overcast,160,2012-12-20 19:15:00
11:35 AM,39.2,35.6,87,29.64,10.0,SSE,15.0,-,0.01,,Overcast,150,2012-12-20 19:35:00
11:55 AM,39.2,35.6,87,29.64,10.0,SSE,12.7,-,0.03,,Overcast,160,2012-12-20 19:55:00
12:15 PM,39.2,37.4,93,29.64,10.0,SSE,13.8,-,N/A,,Overcast,160,2012-12-20 20:15:00
12:35 PM,41.0,35.6,81,29.64,10.0,SSE,16.1,-,N/A,,Overcast,160,2012-12-20 20:35:00
12:55 PM,41.0,37.4,87,29.66,10.0,SSE,13.8,-,N/A,,Overcast,160,2012-12-20 20:55:00
1:15 PM,41.0,37.4,87,29.67,10.0,SSE,13.8,20.7,N/A,,Overcast,160,2012-12-20 21:15:00
1:35 PM,41.0,37.4,87,29.67,10.0,South,13.8,-,N/A,,Overcast,170,2012-12-20 21:35:00
1:55 PM,41.0,37.4,87,29.67,10.0,SSE,15.0,19.6,N/A,,Overcast,160,2012-12-20 21:55:00
2:15 PM,41.0,37.4,87,29.68,10.0,SSE,12.7,-,N/A,,Overcast,160,2012-12-20 22:15:00
2:35 PM,41.0,35.6,81,29.69,10.0,South,15.0,20.7,N/A,,Overcast,170,2012-12-20 22:35:00
2:55 PM,41.0,37.4,87,29.70,10.0,SSE,15.0,20.7,N/A,,Overcast,160,2012-12-20 22:55:00
3:15 PM,41.0,37.4,87,29.71,10.0,South,16.1,21.9,N/A,,Overcast,170,2012-12-20 23:15:00
3:35 PM,41.0,35.6,81,29.73,10.0,SSE,15.0,-,N/A,,Overcast,150,2012-12-20 23:35:00
3:55 PM,41.0,37.4,87,29.73,10.0,SSE,13.8,-,N/A,,Overcast,150,2012-12-20 23:55:00
4:15 PM,41.0,35.6,81,29.74,10.0,SSE,13.8,-,N/A,,Overcast,160,2012-12-21 00:15:00
4:35 PM,41.0,37.4,87,29.75,10.0,SSE,15.0,21.9,N/A,,Overcast,150,2012-12-21 00:35:00
4:55 PM,41.0,35.6,81,29.76,10.0,SSE,13.8,-,N/A,,Overcast,150,2012-12-21 00:55:00
5:15 PM,41.0,35.6,81,29.76,10.0,SE,15.0,-,N/A,,Overcast,140,2012-12-21 01:15:00
5:35 PM,41.0,35.6,81,29.78,10.0,SE,17.3,23.0,N/A,,Overcast,140,2012-12-21 01:35:00
5:55 PM,41.0,35.6,81,29.78,10.0,SSE,16.1,24.2,N/A,,Mostly Cloudy,150,2012-12-21 01:55:00
6:15 PM,41.0,35.6,81,29.79,10.0,SSE,16.1,20.7,N/A,,Mostly Cloudy,150,2012-12-21 02:15:00
6:35 PM,39.2,33.8,81,29.80,10.0,SE,12.7,-,N/A,,Scattered Clouds,140,2012-12-21 02:35:00
6:55 PM,39.2,35.6,87,29.81,10.0,SE,9.2,-,N/A,,Mostly Cloudy,140,2012-12-21 02:55:00
7:15 PM,39.2,35.6,87,29.81,10.0,SE,9.2,-,N/A,,Overcast,130,2012-12-21 03:15:00
7:35 PM,39.2,35.6,87,29.82,10.0,SE,8.1,-,N/A,,Overcast,130,2012-12-21 03:35:00
7:55 PM,41.0,35.6,81,29.82,10.0,SE,9.2,-,N/A,,Overcast,130,2012-12-21 03:55:00
8:15 PM,41.0,33.8,76,29.82,10.0,SE,9.2,-,N/A,,Overcast,130,2012-12-21 04:15:00
8:35 PM,41.0,33.8,76,29.82,10.0,SE,6.9,-,N/A,,Overcast,140,2012-12-21 04:35:00
8:55 PM,41.0,33.8,76,29.83,10.0,SSE,9.2,-,N/A,,Overcast,150,2012-12-21 04:55:00
9:15 PM,41.0,33.8,76,29.84,10.0,SSE,6.9,-,N/A,,Overcast,160,2012-12-21 05:15:00
9:35 PM,39.2,33.8,81,29.84,10.0,SE,5.8,-,N/A,,Overcast,140,2012-12-21 05:35:00
9:55 PM,37.4,32.0,81,29.84,10.0,SE,4.6,-,N/A,,Partly Cloudy,130,2012-12-21 05:55:00
10:15 PM,37.4,32.0,81,29.84,10.0,Calm,Calm,-,N/A,,Clear,0,2012-12-21 06:15:00
10:35 PM,37.4,32.0,81,29.84,10.0,Calm,Calm,-,N/A,,Clear,0,2012-12-21 06:35:00
10:55 PM,35.6,28.4,75,29.84,10.0,North,4.6,-,N/A,,Clear,10,2012-12-21 06:55:00
11:15 PM,33.8,30.2,87,29.84,10.0,Calm,Calm,-,N/A,,Clear,0,2012-12-21 07:15:00
11:35 PM,33.8,30.2,87,29.84,10.0,NNE,4.6,-,N/A,,Clear,20,2012-12-21 07:35:00
11:55 PM,32.0,30.2,93,29.84,10.0,Calm,Calm,-,N/A,,Clear,0,2012-12-21 07:55:00